Flag for Egypt Weather past 2 weeks in Port Said, Egypt

Now
70 °F

Sunny.


Feels Like: 70 °F
Forecast: 61 / 72 °F
Wind: 10 mph from Northeast

Location: Port Said Airport

Current Time: Mar 6, 2015 at 3:20:20 PM

Latest Report: Mar 6, 2015 at 2:00 PM


Visibility: 10 mi

Pressure: 30.04 "Hg

Humidity: 73%

Dew point: 61 °F

Location of Port SaidLocation

Historic Weather in Port Said — Graph

°F

Port Said temperature yesterday

Maximum temperature yesterday: 66 °F (at 11:00 AM)
Minimum temperature yesterday: 59 °F (at 4:00 AM)
Average temperature yesterday: 63 °F

Past Weeks' High & Low Weather Summary

 TemperatureHumidityPressure
High79 °F (Feb 27, 3:00 PM)94% (Feb 22, 4:00 AM)30.18 "Hg (Feb 22, 4:00 AM)
Low43 °F (Feb 20, 5:00 AM)37% (Feb 27, 3:00 PM)29.77 "Hg (Feb 24, 6:00 AM)
Average60 °F75%30.04 "Hg
* Reported Feb 19 2:00 PM — Mar 6 2:00 PM, Port Said, Weather by CustomWeather, © 2015

Note: Actual official high and low records may vary slightly from our data, if they occured in-between our weather recording intervals... More about our weather records

Advertising

Port Said weather history for previous 24 hours

 ConditionsComfort  
Time TempWeatherWind HumidityBarometerVisibility
2:00 PM
Fri, Mar 6
70 °FSunny.10 mph73%30.04 "Hg10 mi
1:00 PM68 °FSunny.9 mph73%30.07 "Hg10 mi
12:00 PM68 °FSunny.10 mph73%30.07 "Hg10 mi
11:00 AM68 °FSunny.10 mph78%30.09 "Hg10 mi
10:00 AM68 °FSunny.10 mph73%30.09 "Hg10 mi
9:00 AM64 °FSunny.13 mph83%30.09 "Hg10 mi
8:00 AM63 °FSunny.17 mph83%30.09 "Hg10 mi
7:00 AM61 °FSunny.16 mph83%30.09 "Hg10 mi
6:00 AM59 °FClear.16 mph82%30.09 "Hg10 mi
5:00 AM59 °FClear.14 mph82%30.09 "Hg10 mi
4:00 AM59 °FClear.15 mph82%30.09 "Hg10 mi
3:00 AM61 °FClear.14 mph77%30.09 "Hg10 mi
2:00 AM61 °FClear.12 mph77%30.12 "Hg10 mi
1:00 AM61 °FClear.13 mph83%30.15 "Hg10 mi
12:00 AM61 °FClear.14 mph83%30.15 "Hg10 mi
11:00 PM
Thu, Mar 5
61 °FClear.12 mph83%30.15 "Hg10 mi
10:00 PM61 °FClear.13 mph83%30.15 "Hg10 mi
9:00 PM63 °FClear.17 mph77%30.12 "Hg10 mi
8:00 PM63 °FClear.16 mph77%30.12 "Hg10 mi
7:00 PM63 °FClear.14 mph77%30.12 "Hg10 mi
6:00 PM63 °FClear.12 mph77%30.12 "Hg10 mi
5:00 PM66 °FPassing clouds.9 mph68%30.12 "HgN/A
4:00 PM64 °FScattered clouds.12 mph73%30.12 "HgN/A
3:00 PM66 °FScattered clouds.9 mph68%30.12 "HgN/A
Weather by CustomWeather, © 2015

See weather overviewHow to use our weather pages